Location: *
(45.9500°N, 9.0833°E)
Time: 18:27:52
(UTC+00:00)

Meteor 2-20 Rocket - Pass Details

Date: 03 March 2021
Orbit: 941 x 958 km, 82.5° (Epoch: 14 April)

Event Time Altitude Azimuth Distance (km) Brightness Sun altitude
Rises 19:41:05 0° 353° (N) 3,622 7.8 -26.2°
Reaches altitude 10° 19:43:36 10° 356° (N) 2,675 7.0 -26.6°
Enters shadow 19:49:10 63° 51° (NE) 1,055 4.4 -27.5°
